Regional Weather Roundup
Issued by NWS Green Bay, WI

Home | Current Version | Previous Version | Graphics & Text | Print | Product List | Glossary Off
Versions: 1 2 3 4 5 6 7 8 9 10 11 12 13 14 15 16 17 18 19 20 21 22 23 24 25 26 27 28 29 30 31 32 33 34 35 36 37 38 39 40 41 42 43 44 45 46 47 48 49 50

000
ASUS43 KGRB 222200
RWRGRB

NORTH-CENTRAL AND NORTHEAST WISCONSIN REGIONAL WEATHER ROUNDUP
NATIONAL WEATHER SERVICE GREEN BAY WI
400 PM CST THU FEB 22 2018

WIZ005-009-010>012-018-019-222300-
NORTH CENTRAL WISCONSIN

CITY           SKY/WX    TMP DP  RH WIND       PRES   REMARKS
IRONWOOD       CLOUDY    31  11  43 SE8       30.45F
MANITOWISH WTR NOT AVBL
ARBOR VITAE    NOT AVBL
EAGLE RIVER    FAIR      32   7  35 S6        30.44S
LAND O LAKES   CLOUDY    32   8  36 SE8       30.45F
RHINELANDER    CLOUDY    30  13  49 E10       30.45F
PHILLIPS       CLOUDY    31  10  40 SE7       30.44F
ANTIGO         NOT AVBL
TOMAHAWK       NOT AVBL
MERRILL        CLOUDY    30  13  48 SE6       30.47F
$$

WIZ013-073-222300-
NORTHEAST WISCONSIN

CITY           SKY/WX    TMP DP  RH WIND       PRES   REMARKS
IRON MOUNTAIN  PTSUNNY   31  16  54 SE8       30.49F
MARINETTE      CLOUDY    29  21  72 NE13      30.56F
$$

WIZ017-030-035>037-045-222300-
CENTRAL WISCONSIN

CITY           SKY/WX    TMP DP  RH WIND       PRES   REMARKS
MEDFORD        NOT AVBL
WAUSAU         CLOUDY    29  13  51 E10       30.45F
MOSINEE        CLOUDY    28  14  54 E8        30.48F
MARSHFIELD     CLOUDY    29  15  56 E10       30.45R
WISC RAPIDS    CLOUDY    30  16  56 SE8       30.51R
STEVENS POINT  NOT AVBL
WAUPACA        CLOUDY    32  21  62 E6        30.52R
SHAWANO        CLOUDY    32  21  64 E8        30.51F
CLINTONVILLE   CLOUDY    31  18  57 E7        30.52R
WAUTOMA        CLOUDY    31  22  69 NE8       30.50R
$$

WIZ038-039-048-051-222300-
FOX VALLEY

CITY           SKY/WX    TMP DP  RH WIND       PRES   REMARKS
NWS GREEN BAY  CLOUDY    31  21  66 NE10      30.53S
APPLETON       CLOUDY    30  18  59 E9        30.49S
OSHKOSH        CLOUDY    32  21  64 E9        30.49S
FOND DU LAC    CLOUDY    34  22  61 E8        30.50R
$$

WIZ022-050-052-222300-
EAST CENTRAL WISCONSIN

CITY           SKY/WX    TMP DP  RH WIND       PRES   REMARKS
EPHRAIM        NOT AVBL
WASHINGTON ISL NOT AVBL
STURGEON BAY   CLOUDY    30  22  72 E8        30.53F
MANITOWOC      CLOUDY    32  24  72 NE6       30.53R
SHEBOYGAN      CLOUDY    32  26  78 E10       30.50F
$$

LMZ563-521-522-541>543-222300-
LAKESHORE

STATION/POSITION TIME  TEMP    WIND        PRES    VSBY  WAVE
                       AIR SEA DIR/SP/G                  HT/PER
                 (UTC) (F)     (DEG/KT/KT) (MB)    (MI)  (FT/S)
SHEBOYGAN LKSHOR 2100   31      50/ 14/ 15 1034.1F
KEWAUNEE LKSHORE 2130   31      60/  7/ 12 1032.9F
NORTHPORT PIER   2140   29                 1034.2F
SISTER BAY LKSHO 2120   33     100/  9/ 12   N/A
MENOMINEE LKSHOR 2130   28      20/ 11/ 14 1034.2F
$$



USA.gov is the U.S. government's official web portal to all federal, state and local government web resources and services.